Theta_e
307 307 308 309 311 313 313 315 315 315 316 316 316 316 316 315 314 313 311 310 310 309 308 306 305 304 302 300 300 299 297 296 297 299 300 300 299 296 293 290 287 288 292
305 306 307 307 308 308 309 311 312 312 311 311 311 311 310 310 309 308 308 308 307 306 306 304 303 303 301 300 300 299 297 296 296 297 297 296 295 295 292 290 288 287 287
302 303 304 304 305 305 306 307 307 308 308 308 307 307 307 307 307 306 305 305 305 305 304 304 303 302 301 301 299 298 297 296 295 294 295 292 292 290 287 285 285 285 285
298 298 299 300 301 302 303 304 304 305 305 305 305 305 305 305 305 304 304 304 303 302 302 302 302 301 300 300 298 297 297 295 294 293 293 292 288 286 285 284 282 283 284
295 296 295 296 297 299 300 301 301 301 302 302 303 303 302 302 302 302 301 300 299 298 298 298 298 298 298 297 296 296 295 294 293 291 291 289 286 284 283 283 282 282 282
294 294 294 295 295 295 296 296 298 299 299 300 300 301 301 301 300 300 299 298 298 297 297 297 297 297 297 296 295 294 293 293 292 292 291 291 289 286 284 283 282 282 282
293 293 293 293 294 294 294 295 296 296 296 296 297 297 297 297 297 297 296 294 293 293 292 293 293 293 293 293 293 292 291 292 292 292 291 291 290 288 286 283 283 284 283
289 289 289 290 291 292 293 293 294 294 294 294 294 294 294 294 294 293 293 292 291 291 291 291 290 290 291 290 290 289 289 290 290 291 290 290 290 289 288 287 285 283 283
287 288 288 289 290 290 290 291 291 292 292 292 291 291 291 292 291 291 291 291 291 291 291 290 290 290 290 289 287 287 287 287 288 288 288 288 289 288 288 286 284 283 282
284 285 286 286 287 288 288 289 289 290 290 290 290 290 290 290 290 290 290 289 288 288 288 288 289 288 288 288 287 287 286 287 286 286 286 287 287 287 286 286 284 283 283
283 284 285 285 285 286 286 287 287 287 288 288 288 289 289 289 289 288 288 287 287 287 287 287 287 286 286 286 287 287 287 286 286 286 286 286 286 286 285 284 283 283 283
283 283 284 284 284 284 284 285 285 286 286 286 286 287 288 288 288 287 287 286 285 286 286 286 286 285 286 286 286 286 286 287 286 285 285 286 285 285 284 284 283 282 282
282 283 283 283 282 281 281 281 282 283 285 286 286 286 287 287 288 287 286 285 284 284 284 283 284 284 285 286 285 285 285 285 285 285 285 285 284 284 284 283 282 282 281
280 280 280 281 281 281 281 280 280 281 282 283 283 284 285 285 286 288 288 286 285 284 285 285 284 284 284 285 284 284 284 284 285 286 285 285 284 283 283 282 281 280 280
277 277 277 277 277 278 279 279 280 281 281 282 283 283 284 285 286 286 286 286 286 285 285 285 285 285 284 284 283 283 283 284 284 284 285 285 284 283 282 282 281 280 280
275 274 274 274 274 274 275 277 279 280 281 282 282 283 284 285 285 285 286 286 286 286 286 286 285 285 284 284 284 283 283 283 284 284 284 284 283 283 283 282 281 280 280
273 273 273 273 272 272 273 274 276 279 280 281 282 283 284 283 283 284 284 284 285 286 287 286 285 285 284 284 284 283 283 283 283 283 284 284 283 282 282 282 281 281 281
272 272 272 271 271 271 271 273 274 275 278 280 281 282 282 282 282 283 283 283 284 285 286 285 285 284 284 283 283 283 283 283 283 283 283 283 283 282 281 281 281 280 280
271 270 270 269 270 270 270 272 274 276 278 279 280 280 280 281 281 281 281 280 278 280 280 280 280 280 281 281 282 282 283 283 283 283 283 283 282 282 282 281 281 280 279
271 271 271 270 269 269 270 272 273 274 275 276 279 276 276 278 277 276 275 275 274 273 273 273 275 276 277 277 278 278 280 282 282 282 282 282 282 282 282 282 281 280 279
269 270 269 269 268 268 269 270 270 271 272 273 273 272 273 272 271 271 271 271 270 270 270 270 271 272 273 274 275 275 276 276 277 277 278 279 280 281 281 281 281 280 280
268 268 268 268 267 267 267 268 268 268 269 269 269 269 269 269 269 268 268 269 269 269 269 269 269 270 270 270 271 271 271 272 273 274 274 275 276 277 278 280 280 280 280
267 267 267 266 266 266 266 266 267 267 267 267 267 267 266 266 266 266 266 266 267 267 267 267 268 268 268 268 269 268 268 269 269 270 271 272 272 273 274 275 276 277 278
266 266 265 265 265 265 264 265 265 265 265 265 265 265 265 265 264 265 265 265 266 266 266 266 266 266 267 267 267 267 267 267 267 268 268 269 270 270 271 272 272 273 273
265 264 264 264 264 264 263 263 264 264 264 264 264 264 264 264 263 264 264 265 265 265 265 265 266 266 266 266 266 266 266 266 267 266 267 267 268 268 269 269 269 270 270
264 264 264 264 263 263 263 262 262 262 263 263 263 263 263 263 263 264 264 264 264 264 264 264 264 264 264 264 265 265 265 266 266 266 266 266 266 266 266 267 267 267 267
Wind_Speed
8 6 5 3 1 2 5 7 8 8 10 11 12 13 14 15 16 18 22 24 27 30 31 33 34 34 33 34 34 35 32 28 22 29 29 31 32 32 34 37 41 50 54
9 8 8 7 5 3 2 2 4 5 7 8 9 11 12 14 16 17 18 20 23 25 27 28 30 30 31 32 33 33 33 31 28 27 23 26 29 32 34 35 37 43 49
11 9 8 8 7 6 5 3 5 5 7 8 9 10 11 13 14 15 17 18 20 22 24 26 29 29 31 32 32 31 32 34 32 29 25 17 22 26 28 32 33 35 40
13 13 12 11 9 7 6 6 6 6 7 8 9 9 10 12 14 15 17 19 22 24 25 27 28 30 31 30 30 32 32 29 28 26 25 22 23 24 26 27 25 33 34
14 15 15 13 12 11 10 7 6 6 8 9 10 11 13 15 15 17 19 21 23 25 26 26 26 27 28 29 30 29 30 30 25 24 23 19 19 17 23 22 26 24 31
14 15 14 15 14 14 12 11 10 9 9 9 10 12 13 15 16 18 19 21 23 25 27 27 26 26 26 26 27 28 31 31 28 24 24 24 27 22 23 24 24 17 12
12 13 13 13 13 14 14 14 14 14 12 11 11 12 13 14 15 16 16 18 22 22 21 25 26 27 25 25 26 25 26 30 35 32 30 29 27 27 23 24 26 26 23
10 11 12 13 14 13 14 14 14 13 13 13 13 13 15 15 14 14 15 16 19 22 23 22 22 23 23 26 27 27 29 29 29 33 38 39 33 29 30 30 30 29 21
11 13 14 15 17 17 17 16 15 14 14 15 15 16 16 15 13 13 15 17 20 21 22 22 22 25 25 22 22 26 27 27 29 27 29 31 34 34 31 26 19 18 12
13 13 13 14 15 15 16 16 16 17 17 18 18 15 15 16 14 13 14 15 18 19 19 20 21 22 22 21 22 25 24 23 22 24 25 25 27 27 27 28 24 22 16
12 13 14 15 16 15 18 18 18 19 19 18 18 17 16 14 14 13 13 14 14 17 18 19 21 23 22 20 20 24 25 25 25 22 23 22 23 26 25 27 28 27 21
14 15 16 17 17 17 19 19 18 17 17 17 18 17 15 14 13 13 14 14 14 17 19 19 21 21 21 20 20 20 21 22 22 19 18 14 14 16 19 26 28 28 23
15 16 18 18 17 18 18 17 15 14 12 13 13 14 14 14 15 15 16 19 16 15 16 17 18 19 20 21 19 18 18 19 19 16 15 14 15 18 19 20 22 22 24
15 16 17 19 21 20 17 14 12 12 13 14 15 16 16 16 16 21 20 21 19 18 19 19 18 18 17 17 16 15 13 13 15 16 16 15 14 14 16 19 19 20 16
14 15 16 17 18 20 18 17 15 14 14 19 20 20 21 21 19 21 22 20 21 21 20 20 14 12 12 11 11 12 13 12 12 14 15 14 12 12 14 16 16 14 14
12 13 14 16 17 16 17 22 18 16 17 18 21 22 25 24 22 22 22 22 21 20 19 15 13 13 12 12 11 11 11 11 12 13 13 13 12 12 13 12 14 14 14
10 12 13 13 14 15 16 17 22 27 19 17 19 21 20 23 23 22 21 21 21 19 18 13 13 12 12 11 11 10 11 11 13 11 12 12 12 12 12 11 12 13 13
9 10 11 12 13 14 14 15 16 18 21 21 18 20 22 20 18 16 16 18 18 17 16 11 10 9 10 10 9 9 10 10 10 10 10 10 10 10 9 11 11 13 12
10 10 12 12 12 14 14 13 14 16 18 21 21 17 15 15 14 15 15 12 11 11 10 8 7 7 8 8 9 10 9 9 9 9 8 9 10 10 11 11 11 13 13
9 11 13 13 13 12 12 13 14 15 16 17 15 11 15 13 10 11 11 11 10 10 10 9 9 8 8 8 8 8 7 7 7 7 8 8 8 9 10 10 10 10 12
9 10 11 12 11 11 11 11 12 13 13 12 11 11 13 9 8 9 10 11 11 11 11 10 10 9 9 9 9 8 6 5 6 6 5 5 6 8 8 8 8 9 10
8 9 9 10 11 10 11 10 10 11 11 11 11 10 11 9 8 8 8 9 9 10 10 10 10 10 11 11 11 10 9 9 8 8 7 7 7 7 7 7 8 8 8
5 6 7 7 9 9 8 9 9 10 10 10 10 10 10 9 9 8 9 10 10 9 9 9 9 9 9 9 9 9 10 10 10 10 10 9 8 7 6 6 5 4 3
4 5 5 6 6 7 7 8 8 9 10 9 10 9 9 9 9 9 9 9 9 9 9 9 9 9 10 10 9 9 8 9 10 10 9 9 8 8 6 6 5 4 3
3 4 4 6 7 7 7 7 7 8 9 9 9 10 10 9 9 9 10 10 10 10 10 10 10 10 9 9 9 9 6 6 9 10 10 8 8 7 6 5 5 4 3
5 6 7 8 8 8 9 9 9 10 10 10 10 11 11 12 12 12 12 12 13 13 13 13 13 13 12 11 10 9 7 5 9 11 10 9 7 6 5 5 4 3 2
Wind_Direction
60 63 70 70 96 234 249 254 259 260 258 259 253 256 260 261 260 255 253 258 261 262 264 264 265 266 258 255 258 256 249 238 247 263 258 256 252 250 248 244 240 234 231
65 63 59 52 44 44 30 271 244 250 257 258 259 261 264 266 266 265 266 265 264 266 268 269 269 271 268 262 260 255 251 247 243 261 262 253 246 249 250 247 244 237 231
65 67 60 55 52 40 31 344 323 309 294 288 284 283 283 283 279 274 270 266 265 267 268 268 270 270 271 268 261 255 253 252 247 253 264 265 250 247 246 247 244 236 232
65 63 57 45 36 21 5 0 339 316 296 288 289 291 288 284 282 280 274 269 265 263 263 265 270 270 272 271 268 263 259 252 249 247 256 256 251 249 246 230 224 228 226
61 57 50 47 43 38 28 9 339 318 311 310 307 302 297 292 290 288 286 286 284 284 282 278 274 273 276 279 274 269 265 255 245 241 245 243 235 223 213 221 223 222 224
65 59 52 48 43 39 33 25 17 9 358 339 322 309 299 293 291 287 285 284 284 282 282 282 283 283 283 282 276 268 264 257 248 241 245 239 242 232 230 213 211 207 225
62 54 47 41 36 31 25 21 19 14 3 354 343 326 318 309 302 291 287 285 283 282 281 287 290 291 291 286 283 278 270 259 256 252 247 244 247 233 228 214 213 216 224
55 41 31 24 19 15 12 10 5 359 352 345 339 329 319 317 313 310 305 293 286 287 289 290 287 287 285 289 291 287 281 278 270 259 251 255 253 249 244 241 230 224 228
32 20 13 7 2 357 356 351 345 340 338 337 334 328 324 321 318 309 305 300 295 295 296 295 290 293 295 293 279 276 278 278 286 279 270 266 264 259 253 238 211 201 212
11 3 359 352 349 346 339 337 335 330 325 324 322 320 316 314 316 308 302 296 295 297 299 300 301 301 303 295 282 277 275 279 283 286 287 275 259 253 247 240 214 205 211
358 355 352 350 345 339 333 332 327 319 314 311 311 311 307 309 312 310 305 302 295 297 295 296 298 303 300 292 285 279 276 285 285 282 280 269 256 244 239 226 224 215 210
352 350 345 344 342 338 332 328 323 317 310 308 311 310 305 304 309 313 310 302 297 290 293 296 298 299 294 291 286 283 285 288 284 267 270 251 237 230 225 228 233 228 221
346 343 341 339 340 340 335 328 327 324 318 314 310 307 304 299 306 307 306 316 299 299 295 300 302 301 296 284 287 285 289 290 282 257 258 255 241 244 244 228 227 226 232
344 343 342 341 339 338 336 328 320 319 317 313 309 305 301 297 297 306 308 315 311 305 309 308 308 308 301 286 286 288 286 281 280 263 253 257 250 246 232 225 214 217 216
346 343 340 337 335 333 330 326 316 308 303 305 300 296 295 291 290 295 297 296 304 303 305 302 296 299 304 293 283 283 285 283 282 280 267 251 239 236 229 227 221 211 212
341 338 336 335 332 330 327 324 321 305 300 299 298 291 291 285 296 297 296 293 291 290 285 287 288 290 290 291 289 291 291 288 283 279 269 251 243 233 235 225 219 215 220
336 335 332 334 331 329 328 325 320 323 318 308 303 300 292 295 299 299 298 298 292 285 265 276 284 288 292 291 284 286 290 296 294 280 274 258 247 244 235 230 227 223 228
336 337 335 329 326 326 322 315 311 309 311 314 315 310 309 305 303 304 305 305 297 281 264 262 275 289 295 290 288 290 294 297 293 283 277 271 257 243 233 232 227 225 231
342 339 332 327 324 322 317 310 308 307 308 310 314 320 321 318 309 301 309 318 316 317 319 314 308 311 309 305 304 299 297 297 297 294 288 279 271 258 251 244 239 235 232
341 343 339 331 327 325 323 319 318 317 318 322 324 341 332 332 331 334 342 346 346 344 343 337 340 338 331 325 323 317 310 308 309 304 298 291 284 271 265 260 247 238 231
339 338 338 336 331 327 322 320 320 320 320 323 324 332 345 340 341 348 351 355 357 356 353 350 354 357 356 354 351 348 345 344 342 332 324 315 303 288 279 273 265 251 245
337 339 343 341 336 335 332 329 326 326 325 327 327 331 346 347 347 347 348 349 352 353 352 353 353 358 1 2 1 360 355 354 351 349 344 340 332 322 308 290 275 268 257
343 345 345 348 343 339 338 338 336 336 333 332 334 337 345 348 348 350 348 348 350 353 356 358 0 1 2 4 6 4 359 355 352 346 338 334 329 324 325 324 314 308 297
352 349 348 347 347 346 345 339 338 339 339 337 339 341 344 342 342 343 346 346 347 348 353 357 1 2 3 3 2 0 358 354 354 354 351 347 340 337 330 320 313 310 304
325 325 331 329 333 332 333 332 327 328 328 329 330 330 332 331 329 331 333 334 335 333 335 337 339 340 340 341 340 340 342 347 342 340 340 340 337 335 331 328 323 315 306
293 299 304 305 305 306 308 308 307 308 309 311 312 310 314 313 312 314 315 318 318 318 317 317 317 317 316 315 315 315 314 327 329 330 332 330 330 335 334 329 327 324 318